Regional Weather Roundup
Issued by NWS

Home | Current Version | Previous Version | Text Only | Print | Product List | Glossary Off
Versions: 1 2 3 4 5 6 7 8 9 10 11 12 13 14 15 16 17 18 19 20 21 22 23 24 25 26 27 28 29 30 31 32 33 34 35 36 37 38 39 40 41 42 43 44 45 46 47 48 49 50

000
ASUS43 KFSD 300010
RWRSD

WEATHER ROUNDUP FOR SOUTH DAKOTA
NATIONAL WEATHER SERVICE SIOUX FALLS SD
700 PM CDT TUE JUL 29 2014

NOTE: "FAIR" INDICATES FEW OR NO CLOUDS BELOW 12,000 FEET WITH NO
SIGNIFICANT WEATHER AND/OR OBSTRUCTIONS TO VISIBILITY.


SDZ001>005-009-010-012>017-300100-
NORTHWEST AND NORTH CENTRAL SOUTH DAKOTA

CITY           SKY/WX    TMP DP  RH WIND       PRES   REMARKS
BUFFALO          N/A     82  49  31 SE6       30.11F
FAITH            N/A     80  51  36 SE6       30.16F
MOBRIDGE       SUNNY     80  53  39 NE6       30.12S
$$

SDZ012>016-024>037-041>051-057-063-072>074-300100-
SOUTHWEST AND SOUTH CENTRAL SOUTH DAKOTA

CITY           SKY/WX    TMP DP  RH WIND       PRES   REMARKS
RAPID CTY ARPT CLOUDY    71  55  56 SE3       30.21F
PIERRE         MOSUNNY   81  51  35 NE13      30.12F
CUSTER         CLOUDY    63  50  62 CALM      30.31F
ELLSWORTH AFB  CLOUDY    71  54  53 S7        30.21S
PHILIP         MOSUNNY   82  48  30 E7        30.14F
PINE RIDGE     CLOUDY    71  55  56 E8        30.21S
WINNER         FAIR      81  46  29 N6        30.14F
$$

SDZ004>011-016>023-039-040-300100-
NORTHEAST SOUTH DAKOTA

CITY           SKY/WX    TMP DP  RH WIND       PRES   REMARKS
ABERDEEN       SUNNY     75  52  44 NE8       30.12F
WATERTOWN      SUNNY     73  50  44 NW8       30.13F
SISSETON         N/A     75  55  49 N8        30.10F
$$

SDZ017-020-022-023-036>040-048>070-300100-
SOUTHEAST SOUTH DAKOTA

CITY           SKY/WX    TMP DP  RH WIND       PRES   REMARKS
SIOUX FALLS    MOSUNNY   75  55  49 N6        30.13F
HURON          SUNNY     77  52  41 N7        30.11F
CHAMBERLAIN    MOSUNNY   78  51  39 CALM      30.13F
MITCHELL       SUNNY     77  52  41 N9        30.12F
YANKTON        MOSUNNY   75  52  43 N7        30.13
$$

ABBREVIATIONS USED IN REMARKS
   TC - TEMPERATURE IN CELSIUS
  WCI - WIND CHILL INDEX
   HX - HEAT INDEX
  VSB - VISIBILITY




USA.gov is the U.S. government's official web portal to all federal, state and local government web resources and services.